Date String (YYYY-MM-DD hh:mm:ss) UTC,Instrument flags,absolute air pressure of the measurement (hPa),sample flow rate (lpm),inlet stack bypass flow (lpm),air temperature of the measurement (°C),ambient temperature measured by the external sensor (°C),aerosol sample conditioner tube jacket temperature (°C),OPC LED temperature (°C),internal box temperature (°C),relative humidity of the measurement (%),span deviation,mass concentration of particles derived from Lorenz-Mie calculation of OPC scattering (μg/m³),mass concentration of particles derived from Lorenz-Mie calculation of OPC scattering (μg/m³),mass concentration of particles derived from Lorenz-Mie calculation of OPC scattering (μg/m³)
DateTimeUTC,F1_M11,P_M11,Q1_M11,Q2_M11,T1_M11,T2_M11,T3_M11,T4_M11,T5_M11,U1_M11,ZSPAN_M11,X0_M11,X2_M11,X1_M11
2023-06-27 20:00:00,SystemResetWarning,0824.7,5.01,000.00,029.0,025.9,000.0,037.5,030.5,24.6,0000.0,0016.14,0007.67,0006.62
2023-06-27 20:01:00,SystemResetWarning,0824.7,5.00,000.00,029.0,026.4,000.0,037.5,030.5,23.9,0000.0,0016.10,0007.59,0006.52
2023-06-27 20:02:00,SystemResetWarning,0824.7,4.99,000.00,029.0,026.8,000.0,037.5,030.6,22.9,0000.0,0016.60,0007.45,0006.39
2023-06-27 20:03:00,SystemResetWarning,0824.6,5.01,000.00,029.1,027.2,000.0,037.5,030.7,22.6,0000.0,0017.70,0007.30,0006.26
2023-06-27 20:04:00,SystemResetWarning,0824.5,5.00,000.00,029.1,027.4,000.0,037.5,030.8,19.7,0000.0,0017.64,0007.15,0006.15
2023-06-27 20:05:00,SystemResetWarning,0824.5,4.98,000.00,029.2,026.3,000.0,037.5,030.9,20.7,0000.0,0017.67,0007.06,0006.09
2023-06-27 20:06:00,SystemResetWarning,0824.5,5.01,000.00,029.1,024.7,000.0,037.4,030.7,19.3,0000.0,0017.93,0007.09,0006.11
2023-06-27 20:07:00,SystemResetWarning,0824.5,5.01,000.00,029.1,024.5,000.0,037.4,030.7,20.5,0000.0,0018.75,0007.05,0006.10
2023-06-27 20:08:00,SystemResetWarning,0824.4,4.99,000.00,029.0,024.9,000.0,037.4,030.4,21.5,0000.0,0019.67,0006.98,0006.06
2023-06-27 20:09:00,SystemResetWarning,0824.4,5.00,000.00,029.0,025.4,000.0,037.4,030.3,21.4,0000.6,0020.51,0007.04,0006.07
2023-06-27 20:10:00,SystemResetWarning,0824.4,5.00,000.00,029.0,025.9,000.0,037.4,030.4,22.9,0001.5,0020.09,0007.04,0006.09
2023-06-27 20:11:00,SystemResetWarning,0824.5,4.99,000.00,029.0,026.3,000.0,037.4,030.5,23.7,0002.8,0020.46,0007.06,0006.12
2023-06-27 20:12:00,SystemResetWarning,0824.5,4.99,000.00,029.0,026.8,000.0,037.5,030.7,20.1,0000.0,0021.24,0007.13,0006.14
2023-06-27 20:13:00,SystemResetWarning,0824.5,5.01,000.00,029.1,027.1,000.0,037.5,030.8,21.6,0000.0,0021.31,0007.19,0006.16
2023-06-27 20:14:00,SystemResetWarning,0824.5,5.01,000.00,029.1,027.1,000.0,037.5,030.8,21.7,0000.0,0020.12,0007.27,0006.18
2023-06-27 20:15:00,SystemResetWarning,0824.5,4.98,000.00,029.1,025.4,000.0,037.4,030.8,20.6,0001.2,0019.35,0007.33,0006.18
2023-06-27 20:16:00,SystemResetWarning,0824.5,5.01,000.00,029.0,024.2,000.0,037.4,030.7,18.3,0004.4,0019.09,0007.32,0006.14
2023-06-27 20:17:00,SystemResetWarning,0824.5,5.02,000.00,029.0,024.5,000.0,037.3,030.5,18.2,0004.0,0019.37,0007.28,0006.11
2023-06-27 20:18:00,SystemResetWarning,0824.4,5.00,000.00,028.9,024.9,000.0,037.3,030.3,17.9,0003.7,0018.56,0007.27,0006.06
2023-06-27 20:19:00,SystemResetWarning,0824.3,5.00,000.00,028.9,025.4,000.0,037.4,030.3,18.0,0003.8,0017.31,0007.26,0006.03
2023-06-27 20:20:00,SystemResetWarning,0824.4,4.99,000.00,028.9,025.9,000.0,037.4,030.4,17.3,0003.8,0016.33,0007.15,0005.96
2023-06-27 20:21:00,SystemResetWarning,0824.3,4.99,000.00,028.9,026.4,000.0,037.4,030.5,17.1,0002.6,0016.83,0007.07,0005.89
2023-06-27 20:22:00,SystemResetWarning,0824.3,5.00,000.00,028.9,026.8,000.0,037.4,030.6,16.5,0000.4,0017.12,0007.05,0005.83
2023-06-27 20:23:00,SystemResetWarning,0824.2,5.01,000.00,029.0,027.2,000.0,037.4,030.7,17.2,0002.7,0015.73,0006.90,0005.73
2023-06-27 20:24:00,SystemResetWarning,0824.2,5.00,000.00,029.0,027.4,000.0,037.4,030.8,16.6,0000.5,0015.54,0006.78,0005.64
2023-06-27 20:25:00,SystemResetWarning,0824.2,4.98,000.00,029.1,026.8,000.0,037.4,030.8,17.7,0000.0,0015.22,0006.65,0005.55
2023-06-27 20:26:00,SystemResetWarning,0824.3,5.00,000.00,029.1,024.9,000.0,037.4,030.7,17.1,0000.0,0014.98,0006.51,0005.45
2023-06-27 20:27:00,SystemResetWarning,0824.3,5.01,000.00,029.0,024.4,000.0,037.3,030.7,15.3,0000.0,0014.70,0006.37,0005.35
2023-06-27 20:28:00,SystemResetWarning,0824.3,5.01,000.00,029.0,024.8,000.0,037.3,030.4,16.9,0000.0,0014.06,0006.24,0005.25
2023-06-27 20:29:00,SystemResetWarning,0824.3,4.99,000.00,028.9,025.2,000.0,037.3,030.3,17.4,0000.0,0014.63,0006.13,0005.15
2023-06-27 20:30:00,SystemResetWarning,0824.3,5.00,000.00,028.9,025.8,000.0,037.3,030.4,17.6,0000.0,0014.55,0006.06,0005.08
2023-06-27 20:31:00,SystemResetWarning,0824.4,4.99,000.00,028.9,026.3,000.0,037.4,030.5,17.6,0000.0,0016.21,0006.03,0005.02
2023-06-27 20:32:00,SystemResetWarning,0824.4,4.99,000.00,028.9,026.7,000.0,037.4,030.6,18.1,0000.0,0016.15,0005.96,0004.95
2023-06-27 20:33:00,SystemResetWarning,0824.4,5.00,000.00,029.0,027.1,000.0,037.4,030.7,20.0,0000.0,0016.44,0005.86,0004.88
2023-06-27 20:34:00,SystemResetWarning,0824.4,5.01,000.00,029.0,027.4,000.0,037.4,030.7,17.7,0000.0,0016.50,0005.75,0004.81
2023-06-27 20:35:00,SystemResetWarning,0824.5,4.98,000.00,029.1,027.0,000.0,037.4,030.8,17.5,0000.0,0016.24,0005.69,0004.78
2023-06-27 20:36:00,SystemResetWarning,0824.4,5.00,000.00,029.1,025.1,000.0,037.4,030.7,18.1,0000.0,0016.20,0005.67,0004.75
2023-06-27 20:37:00,SystemResetWarning,0824.4,5.00,000.00,029.0,024.4,000.0,037.3,030.6,19.8,0000.0,0016.29,0005.63,0004.71
2023-06-27 20:38:00,SystemResetWarning,0824.3,5.01,000.00,029.0,024.8,000.0,037.3,030.4,20.5,0000.0,0016.18,0005.56,0004.67
2023-06-27 20:39:00,SystemResetWarning,0824.2,5.00,000.00,028.9,025.2,000.0,037.3,030.3,18.2,0000.0,0015.99,0005.49,0004.62
2023-06-27 20:40:00,SystemResetWarning,0824.3,5.00,000.00,028.9,025.7,000.0,037.3,030.4,16.8,0000.0,0015.05,0005.41,0004.54
2023-06-27 20:41:00,SystemResetWarning,0824.3,4.99,000.00,028.9,026.2,000.0,037.3,030.5,16.9,0000.0,0015.17,0005.28,0004.44
2023-06-27 20:42:00,SystemResetWarning,0824.4,4.99,000.00,028.9,026.7,000.0,037.4,030.5,15.3,0000.0,0014.25,0005.15,0004.38
2023-06-27 20:43:00,SystemResetWarning,0824.4,5.01,000.00,029.0,027.0,000.0,037.4,030.7,14.7,0000.0,0013.61,0005.18,0004.38
2023-06-27 20:44:00,SystemResetWarning,0824.7,5.00,000.00,029.0,027.4,000.0,037.4,030.8,15.0,0000.0,0012.98,0005.19,0004.39
2023-06-27 20:45:00,SystemResetWarning,0824.7,4.99,000.00,029.1,027.2,000.0,037.4,030.9,14.8,0000.0,0012.26,0005.23,0004.40
2023-06-27 20:46:00,SystemResetWarning,0824.7,5.00,000.00,029.1,025.2,000.0,037.4,030.8,13.8,0000.0,0011.48,0005.16,0004.35
2023-06-27 20:47:00,SystemResetWarning,0824.6,5.00,000.00,029.0,024.2,000.0,037.3,030.7,13.6,0000.0,0011.18,0005.05,0004.27
2023-06-27 20:48:00,SystemResetWarning,0824.6,5.01,000.00,029.0,024.6,000.0,037.3,030.5,14.1,0000.0,0011.74,0004.91,0004.18
2023-06-27 20:49:00,SystemResetWarning,0824.4,5.02,000.00,028.9,025.0,000.0,037.3,030.3,15.9,0000.0,0012.52,0004.84,0004.11
2023-06-27 20:50:00,SystemResetWarning,0824.4,5.00,000.00,028.9,025.5,000.0,037.3,030.3,14.0,0000.0,0012.58,0004.81,0004.05
2023-06-27 20:51:00,SystemResetWarning,0824.4,4.99,000.00,028.9,026.0,000.0,037.3,030.4,21.1,0000.0,0012.53,0004.79,0004.05
2023-06-27 20:52:00,SystemResetWarning,0824.4,5.00,000.00,028.9,026.5,000.0,037.4,030.5,20.5,0000.0,0012.09,0004.77,0004.04
2023-06-27 20:53:00,SystemResetWarning,0824.4,4.99,000.00,029.0,026.9,000.0,037.4,030.6,18.8,0000.0,0011.72,0004.73,0003.99
2023-06-27 20:54:00,SystemResetWarning,0824.4,5.01,000.00,029.0,027.2,000.0,037.4,030.7,17.6,0000.0,0010.89,0004.57,0003.88
2023-06-27 20:55:00,SystemResetWarning,0824.4,5.00,000.00,029.0,027.2,000.0,037.4,030.8,16.6,0000.0,0010.12,0004.42,0003.77
2023-06-27 20:56:00,SystemResetWarning,0824.4,4.99,000.00,029.1,025.5,000.0,037.4,030.8,15.5,0000.0,0009.60,0004.27,0003.67
2023-06-27 20:57:00,SystemResetWarning,0824.3,5.01,000.00,029.0,024.4,000.0,037.3,030.7,18.0,0000.0,0009.66,0004.31,0003.71
2023-06-27 20:58:00,SystemResetWarning,0824.3,5.02,000.00,029.0,024.7,000.0,037.3,030.6,19.0,0000.0,0009.64,0004.44,0003.86
2023-06-27 20:59:00,SystemResetWarning,0824.3,5.00,000.00,028.9,025.2,000.0,037.3,030.4,14.3,0000.0,0009.01,0004.60,0003.98
